CW6037 Weather Reports


Display with metric or nautical units.
time (UTC)temp
F
wind
direction
speed
MPH
gust
MPH
rain 1hr
in
rain 24hr
in
rain mn
in
humidity
%
barometer
mb
20180924205104 65 80 2.0 8.0 0.00 0.00 0.00 74 1030.9
20180924204604 65 95 3.0 12.0 0.00 0.00 0.00 71 1030.9
20180924204105 66 39 3.0 12.0 0.00 0.00 0.00 70 1030.9
20180924203603 66 10 3.0 11.0 0.00 0.00 0.00 73 1030.9
20180924203103 65 355 2.0 8.0 0.00 0.00 0.00 72 1030.9
20180924202601 65 43 2.0 6.0 0.00 0.00 0.00 73 1030.9
20180924202059 66 344 2.0 7.0 0.00 0.00 0.00 71 1030.9
20180924201559 66 82 2.0 7.0 0.00 0.00 0.00 72 1030.9
20180924201058 65 133 2.0 7.0 0.00 0.00 0.00 72 1030.8
20180924200556 65 26 2.0 12.0 0.00 0.00 0.00 72 1030.8
20180924200057 65 128 2.0 12.0 0.00 0.00 0.00 72 1030.8
20180924195554 65 74 1.0 5.0 0.00 0.00 0.00 71 1031.0
20180924195055 66 173 2.0 9.0 0.00 0.00 0.00 71 1031.0
20180924194556 66 170 3.0 9.0 0.00 0.00 0.00 68 1031.0
20180924194054 67 26 3.0 9.0 0.00 0.00 0.00 68 1031.1
20180924193556 67 78 2.0 9.0 0.00 0.00 0.00 67 1031.1
20180924193055 67 107 2.0 8.0 0.00 0.00 0.00 70 1031.1
20180924192556 66 96 2.0 11.0 0.00 0.00 0.00 69 1031.2
20180924192054 66 71 2.0 13.0 0.00 0.00 0.00 67 1031.2
20180924191557 66 103 3.0 13.0 0.00 0.00 0.00 66 1031.2
20180924191056 67 126 2.0 13.0 0.00 0.00 0.00 65 1031.0
20180924190555 67 5 2.0 13.0 0.00 0.00 0.00 70 1031.0
20180924190054 67 125 4.0 13.0 0.00 0.00 0.00 70 1031.0
20180924185556 67 128 3.0 13.0 0.00 0.00 0.00 68 1031.1
20180924185054 66 333 3.0 13.0 0.00 0.00 0.00 68 1031.1
20180924184557 66 78 4.0 13.0 0.00 0.00 0.00 66 1031.1
20180924184054 66 152 3.0 13.0 0.00 0.00 0.00 68 1031.4
20180924183554 66 42 3.0 10.0 0.00 0.00 0.00 68 1031.4
20180924183059 66 142 4.0 10.0 0.00 0.00 0.00 67 1031.4
20180924182557 67 134 3.0 9.0 0.00 0.00 0.00 64 1031.4
20180924182048 67 107 3.0 9.0 0.00 0.00 0.00 66 1031.4
20180924181548 68 42 3.0 8.0 0.00 0.00 0.00 64 1031.4
20180924181048 68 48 4.0 11.0 0.00 0.00 0.00 65 1031.5
20180924180548 68 48 4.0 11.0 0.00 0.00 0.00 63 1031.5
20180924180049 68 187 4.0 14.0 0.00 0.00 0.00 64 1031.5
20180924175548 69 141 4.0 14.0 0.00 0.00 0.00 62 1031.7
20180924175050 68 58 3.0 10.0 0.00 0.00 0.00 64 1031.7
20180924174552 68 111 3.0 9.0 0.00 0.00 0.00 64 1031.7
20180924174049 67 118 3.0 10.0 0.00 0.00 0.00 65 1031.7
20180924173554 67 80 4.0 12.0 0.00 0.00 0.00 65 1031.7
20180924173045 67 128 4.0 12.0 0.00 0.00 0.00 67 1031.7
20180924172542 67 134 4.0 13.0 0.00 0.00 0.00 66 1031.7
20180924172048 66 12 4.0 13.0 0.00 0.00 0.00 64 1031.7
20180924171543 66 133 2.0 12.0 0.00 0.00 0.00 64 1031.7
20180924171044 65 138 3.0 9.0 0.00 0.00 0.00 64 1031.7
20180924170548 65 34 3.0 10.0 0.00 0.00 0.00 63 1031.7
20180924170039 65 334 3.0 10.0 0.00 0.00 0.00 63 1031.7
20180924165539 65 58 2.0 9.0 0.00 0.00 0.00 66 1031.7
20180924165038 66 80 4.0 10.0 0.00 0.00 0.00 61 1031.7
20180924164538 66 125 4.0 13.0 0.00 0.00 0.00 60 1031.7
20180924164039 67 155 3.0 13.0 0.00 0.00 0.00 62 1031.7
20180924163541 67 86 2.0 8.0 0.00 0.00 0.00 60 1031.7
20180924163039 67 28 2.0 8.0 0.00 0.00 0.00 62 1031.7
20180924162534 67 52 2.0 9.0 0.00 0.00 0.00 61 1031.7
20180924162036 67 73 2.0 11.0 0.00 0.00 0.00 66 1031.7
20180924161533 66 33 2.0 11.0 0.00 0.00 0.00 64 1031.7
20180924161035 66 33 2.0 8.0 0.00 0.00 0.00 65 1031.8
20180924160533 66 67 2.0 8.0 0.00 0.00 0.00 67 1031.8
20180924160032 66 123 3.0 10.0 0.00 0.00 0.00 61 1031.8
20180924155533 66 148 3.0 12.0 0.00 0.00 0.00 64 1031.8
20180924155033 66 109 2.0 12.0 0.00 0.00 0.00 63 1031.8
20180924154533 66 86 1.0 7.0 0.00 0.00 0.00 66 1031.8
20180924154030 65 16 3.0 17.0 0.00 0.00 0.00 66 1031.5
20180924153530 65 34 4.0 17.0 0.00 0.00 0.00 65 1031.5
20180924153027 65 136 2.0 15.0 0.00 0.00 0.00 64 1031.5
20180924152528 64 139 1.0 8.0 0.00 0.00 0.00 70 1031.7
20180924152028 64 85 2.0 11.0 0.00 0.00 0.00 69 1031.7
20180924151527 64 150 3.0 11.0 0.00 0.00 0.00 68 1031.7
20180924151026 63 219 2.0 10.0 0.00 0.00 0.00 69 1032.1
20180924150523 63 101 2.0 10.0 0.00 0.00 0.00 72 1032.1
20180924150023 62 32 2.0 10.0 0.00 0.00 0.00 71 1032.1
20180924145526 62 338 2.0 8.0 0.00 0.00 0.00 71 1032.0
20180924145022 61 111 1.0 4.0 0.00 0.00 0.00 75 1032.0
20180924144522 61 342 2.0 7.0 0.00 0.00 0.00 78 1032.0
20180924144022 60 123 1.0 7.0 0.00 0.00 0.00 75 1031.9
20180924143522 60 11 1.0 7.0 0.00 0.00 0.00 77 1031.9
20180924143021 60 121 1.0 6.0 0.00 0.00 0.00 78 1031.9
20180924142522 59 28 0.0 3.0 0.00 0.00 0.00 80 1032.1
20180924142021 59 43 1.0 6.0 0.00 0.00 0.00 82 1032.1
20180924141520 59 49 1.0 6.0 0.00 0.00 0.00 80 1032.1
20180924141022 58 226 2.0 6.0 0.00 0.00 0.00 79 1032.0
20180924140520 58 30 1.0 6.0 0.00 0.00 0.00 81 1032.0
20180924140019 58 5 1.0 6.0 0.00 0.00 0.00 83 1032.0
20180924135520 57 47 1.0 6.0 0.00 0.00 0.00 83 1031.5
20180924135023 57 348 2.0 8.0 0.00 0.00 0.00 82 1031.5
20180924134520 57 5 3.0 8.0 0.00 0.00 0.00 85 1031.5
20180924134021 56 28 1.0 8.0 0.00 0.00 0.00 86 1031.5
20180924133021 56 38 1.0 8.0 0.00 0.00 0.00 87 1031.5
20180924132520 56 287 0.0 8.0 0.00 0.00 0.00 90 1031.3
20180924132021 55 182 0.0 3.0 0.00 0.00 0.00 89 1031.3
20180924131520 55 179 0.0 5.0 0.00 0.00 0.00 90 1031.3
20180924131019 54 297 1.0 5.0 0.00 0.00 0.00 90 1031.0
20180924130521 54 9 1.0 7.0 0.00 0.00 0.00 91 1031.0
20180924130024 54 275 1.0 7.0 0.00 0.00 0.00 91 1031.0
20180924125519 53 78 1.0 6.0 0.00 0.00 0.00 94 1031.0
20180924125022 53 21 1.0 6.0 0.00 0.00 0.00 95 1031.0
20180924124521 53 276 0.0 6.0 0.00 0.00 0.00 95 1031.0
20180924124025 53 298 1.0 6.0 0.00 0.00 0.00 95 1030.9
20180924123520 52 240 1.0 6.0 0.00 0.00 0.00 97 1030.9
20180924123021 52 279 1.0 8.0 0.00 0.00 0.00 97 1030.9
20180924122522 52 294 1.0 8.0 0.00 0.00 0.00 98 1030.6
20180924122015 51 344 1.0 7.0 0.00 0.00 0.00 99 1030.6
20180924121517 51 300 3.0 11.0 0.00 0.00 0.00 100 1030.6
20180924121016 51 19 3.0 11.0 0.00 0.00 0.00 100 1030.5
20180924120515 51 109 2.0 8.0 0.00 0.00 0.00 100 1030.5
20180924120016 51 292 1.0 9.0 0.00 0.00 0.00 100 1030.5
20180924115515 50 315 1.0 9.0 0.00 0.00 0.00 100 1030.5
20180924115015 50 38 1.0 7.0 0.00 0.00 0.00 100 1030.5
20180924114516 50 328 1.0 7.0 0.00 0.00 0.00 100 1030.5
20180924114018 49 88 1.0 5.0 0.00 0.00 0.00 99 1030.1
20180924113512 49 288 0.0 4.0 0.00 0.00 0.00 99 1030.1
20180924113011 48 278 1.0 7.0 0.00 0.00 0.00 99 1030.1
20180924112555 47 41 1.0 7.0 0.00 0.00 0.00 99 1030.2
20180924112011 47 130 1.0 5.0 0.00 0.00 0.00 99 1030.2
20180924111509 46 71 1.0 5.0 0.00 0.00 0.00 99 1030.2
20180924111010 46 325 0.0 5.0 0.00 0.00 0.00 99 1029.8
20180924110509 46 323 1.0 5.0 0.00 0.00 0.00 99 1029.8
20180924110008 45 306 1.0 4.0 0.00 0.00 0.00 99 1029.8
20180924105507 44 178 1.0 5.0 0.00 0.00 0.00 99 1029.5
20180924105000 44 269 1.0 5.0 0.00 0.00 0.00 98 1029.5
20180924104502 44 77 0.0 2.0 0.00 0.00 0.00 98 1029.5
20180924103958 44 77 0.0 1.0 0.00 0.00 0.00 98 1029.6
20180924103456 44 77 0.0 2.0 0.00 0.00 0.00 98 1029.6
20180924102954 44 77 0.0 2.0 0.00 0.00 0.00 98 1029.6
20180924102455 44 217 0.0 2.0 0.00 0.00 0.00 98 1029.4
20180924101957 44 217 0.0 2.0 0.00 0.00 0.00 98 1029.4
20180924101448 44 249 0.0 1.0 0.00 0.00 0.00 98 1029.4
20180924100946 44 249 0.0 1.0 0.00 0.00 0.00 98 1029.3
20180924100448 44 250 0.0 0.0 0.00 0.00 0.00 98 1029.3
20180924095943 44 249 0.0 0.0 0.00 0.00 0.00 98 1029.3
20180924095446 44 249 0.0 1.0 0.00 0.00 0.00 98 1028.9
20180924094943 44 249 0.0 1.0 0.00 0.00 0.00 98 1028.9
20180924094441 44 249 0.0 0.0 0.00 0.00 0.00 98 1028.9
20180924093938 44 249 0.0 0.0 0.00 0.00 0.00 98 1028.7
20180924093439 44 249 0.0 0.0 0.00 0.00 0.00 98 1028.7
20180924092940 44 249 0.0 0.0 0.00 0.00 0.00 98 1028.7
20180924092439 44 249 0.0 0.0 0.00 0.00 0.00 98 1028.8
20180924091943 44 249 0.0 0.0 0.00 0.00 0.00 98 1028.8
20180924091442 44 249 0.0 0.0 0.00 0.00 0.00 98 1028.8
20180924090937 45 249 0.0 0.0 0.00 0.00 0.00 98 1028.8
20180924090433 45 249 0.0 0.0 0.00 0.00 0.00 98 1028.8
20180924085933 45 249 0.0 0.0 0.00 0.00 0.00 98 1028.4
20180924085434 45 249 0.0 0.0 0.00 0.00 0.00 98 1028.4
20180924084932 45 249 0.0 0.0 0.00 0.00 0.00 98 1028.4
20180924084429 45 249 0.0 0.0 0.00 0.00 0.00 97 1028.4
20180924083930 45 249 0.0 0.0 0.00 0.00 0.00 98 1028.4
20180924083428 45 249 0.0 0.0 0.00 0.00 0.00 98 1028.4
20180924082926 45 249 0.0 0.0 0.00 0.00 0.00 98 1028.4
20180924082426 45 249 0.0 0.0 0.00 0.00 0.00 98 1028.4
20180924081924 45 249 0.0 0.0 0.00 0.00 0.00 98 1028.4
20180924081421 45 249 0.0 0.0 0.00 0.00 0.00 98 1028.4
20180924080920 45 249 0.0 0.0 0.00 0.00 0.00 98 1028.4
20180924080421 45 249 0.0 0.0 0.00 0.00 0.00 98 1028.4
20180924075921 46 249 0.0 0.0 0.00 0.00 0.00 98 1028.3
20180924075413 46 249 0.0 0.0 0.00 0.00 0.00 98 1028.3
20180924074912 46 249 0.0 0.0 0.00 0.00 0.00 98 1028.3
20180924074414 46 249 0.0 0.0 0.00 0.00 0.00 98 1028.3
20180924073912 46 249 0.0 0.0 0.00 0.00 0.00 98 1028.3
20180924073406 46 249 0.0 0.0 0.00 0.00 0.00 98 1028.3
20180924072905 46 249 0.0 0.0 0.00 0.00 0.00 98 1028.2
20180924072405 46 249 0.0 0.0 0.00 0.00 0.00 98 1028.2
20180924071902 46 249 0.0 0.0 0.00 0.00 0.00 98 1028.2
20180924071359 46 249 0.0 0.0 0.00 0.00 0.00 98 1027.9
20180924070901 46 249 0.0 0.0 0.00 0.00 0.00 98 1027.9
20180924070358 46 249 0.0 0.0 0.00 0.00 0.00 97 1027.9
20180924065858 46 249 0.0 0.0 0.00 0.00 0.00 97 1028.1
20180924065356 46 249 0.0 0.0 0.00 0.00 0.00 97 1028.1
20180924064857 46 249 0.0 0.0 0.00 0.00 0.00 97 1028.1
20180924064356 46 249 0.0 0.0 0.00 0.00 0.00 97 1027.8
20180924063857 46 249 0.0 0.0 0.00 0.00 0.00 97 1027.8
20180924063355 46 249 0.0 0.0 0.00 0.00 0.00 97 1027.8
20180924062854 47 249 0.0 0.0 0.00 0.00 0.00 97 1027.8
20180924062355 47 249 0.0 0.0 0.00 0.00 0.00 97 1027.8
20180924061851 47 249 0.0 0.0 0.00 0.00 0.00 97 1027.8
20180924061355 47 249 0.0 0.0 0.00 0.00 0.00 97 1027.9
20180924060848 47 249 0.0 0.0 0.00 0.00 0.00 97 1027.9
20180924060348 47 249 0.0 0.0 0.00 0.00 0.00 97 1027.9
20180924055846 47 249 0.0 0.0 0.00 0.00 0.00 97 1027.8
20180924055348 47 249 0.0 0.0 0.00 0.00 0.00 97 1027.8
20180924054843 47 249 0.0 0.0 0.00 0.00 0.00 97 1027.8
20180924054341 47 249 0.0 0.0 0.00 0.00 0.00 97 1027.8
20180924053841 47 249 0.0 0.0 0.00 0.00 0.00 97 1027.8
20180924053343 47 249 0.0 0.0 0.00 0.00 0.00 97 1027.8
20180924052842 48 249 0.0 0.0 0.00 0.00 0.00 97 1027.8
20180924052336 48 249 0.0 0.0 0.00 0.00 0.00 97 1027.8
20180924051833 48 249 0.0 0.0 0.00 0.00 0.00 97 1027.8
20180924051334 48 249 0.0 0.0 0.00 0.00 0.00 97 1027.7
20180924050832 48 249 0.0 0.0 0.00 0.00 0.00 97 1027.7
20180924050329 48 249 0.0 0.0 0.00 0.00 0.00 97 1027.7
20180924045828 48 249 0.0 0.0 0.00 0.00 0.00 97 1027.7
20180924045329 48 249 0.0 0.0 0.00 0.00 0.00 97 1027.7
20180924044829 48 249 0.0 0.0 0.00 0.00 0.00 97 1027.7
20180924044330 48 249 0.0 0.0 0.00 0.00 0.00 97 1027.6
20180924043856 48 249 0.0 0.0 0.00 0.00 0.00 97 1027.6
20180924043327 48 249 0.0 0.0 0.00 0.00 0.00 97 1027.6
20180924042827 49 249 0.0 0.0 0.00 0.00 0.00 96 1027.4
20180924042327 49 249 0.0 0.0 0.00 0.00 0.00 96 1027.4
20180924041828 49 249 0.0 0.0 0.00 0.00 0.00 96 1027.4
20180924041328 49 249 0.0 0.0 0.00 0.00 0.00 96 1027.3
20180924040825 49 249 0.0 0.0 0.00 0.00 0.00 97 1027.3
20180924040322 49 249 0.0 0.0 0.00 0.00 0.00 97 1027.3
20180924035823 49 249 0.0 0.0 0.00 0.00 0.00 97 1027.2
20180924035321 50 249 0.0 0.0 0.00 0.00 0.00 97 1027.2
20180924034822 50 249 0.0 0.0 0.00 0.00 0.00 97 1027.2
20180924034321 50 249 0.0 0.0 0.00 0.00 0.00 97 1027.2
20180924033818 50 249 0.0 0.0 0.00 0.00 0.00 97 1027.2
20180924033320 50 249 0.0 0.0 0.00 0.00 0.00 97 1027.2
20180924032817 50 249 0.0 0.0 0.00 0.00 0.00 97 1027.3
20180924032316 50 249 0.0 0.0 0.00 0.00 0.00 96 1027.3
20180924031815 50 249 0.0 0.0 0.00 0.00 0.00 96 1027.3
20180924031315 51 249 0.0 0.0 0.00 0.00 0.00 96 1027.2
20180924030814 51 249 0.0 0.0 0.00 0.00 0.00 97 1027.2
20180924030314 51 249 0.0 0.0 0.00 0.00 0.00 97 1027.2
20180924025814 51 249 0.0 0.0 0.00 0.00 0.00 96 1027.2
20180924025310 51 249 0.0 0.0 0.00 0.00 0.00 96 1027.2
20180924024811 51 249 0.0 0.0 0.00 0.00 0.00 96 1027.2
20180924024311 51 249 0.0 0.0 0.00 0.00 0.00 96 1027.2
20180924023810 51 249 0.0 0.0 0.00 0.00 0.00 96 1027.2
20180924023308 51 249 0.0 0.0 0.00 0.00 0.00 96 1027.2
20180924022809 52 249 0.0 0.0 0.00 0.00 0.00 96 1027.1
20180924022308 52 249 0.0 0.0 0.00 0.00 0.00 96 1027.1
20180924021806 52 249 0.0 0.0 0.00 0.00 0.00 96 1027.1
20180924021304 52 249 0.0 0.0 0.00 0.00 0.00 96 1026.8
20180924020805 52 249 0.0 0.0 0.00 0.00 0.00 96 1026.8
20180924020304 52 249 0.0 0.0 0.00 0.00 0.00 96 1026.8
20180924015802 52 249 0.0 0.0 0.00 0.00 0.00 96 1026.7
20180924015300 52 249 0.0 0.0 0.00 0.00 0.00 96 1026.7
20180924014759 52 249 0.0 0.0 0.00 0.00 0.00 96 1026.7
20180924014258 52 249 0.0 0.0 0.00 0.00 0.00 96 1026.7
20180924013757 53 249 0.0 0.0 0.00 0.00 0.00 95 1026.7
20180924013257 53 249 0.0 0.0 0.00 0.00 0.00 95 1026.7
20180924012750 53 249 0.0 0.0 0.00 0.00 0.00 95 1026.7
20180924012254 53 249 0.0 0.0 0.00 0.00 0.00 95 1026.7
20180924011752 53 249 0.0 0.0 0.00 0.00 0.00 95 1026.7
20180924011250 53 249 0.0 0.0 0.00 0.00 0.00 95 1026.7
20180924010750 53 249 0.0 0.0 0.00 0.00 0.00 95 1026.7
20180924010248 54 249 0.0 0.0 0.00 0.00 0.00 95 1026.7
20180924005746 54 249 0.0 0.0 0.00 0.00 0.00 95 1026.3
20180924005241 54 249 0.0 0.0 0.00 0.00 0.00 95 1026.3
20180924004742 54 249 0.0 0.0 0.00 0.00 0.00 95 1026.3
20180924004241 54 249 0.0 0.0 0.00 0.00 0.00 95 1026.2
20180924003739 55 249 0.0 0.0 0.00 0.00 0.00 94 1026.2
20180924003237 55 249 0.0 0.0 0.00 0.00 0.00 94 1026.2
20180924002735 55 249 0.0 0.0 0.00 0.00 0.00 94 1025.8
20180924002234 55 249 0.0 0.0 0.00 0.00 0.00 94 1025.7
20180924001736 55 249 0.0 0.0 0.00 0.00 0.00 94 1025.7
20180924001221 56 249 0.0 0.0 0.00 0.00 0.00 94 1025.6
20180924000716 56 249 0.0 0.0 0.00 0.00 0.00 93 1025.7
20180924000204 56 249 0.0 0.0 0.00 0.00 0.00 93 1025.7
20180923235658 56 249 0.0 0.0 0.00 0.00 0.00 93 1025.5
20180923235155 56 249 0.0 0.0 0.00 0.00 0.00 93 1025.5
20180923234647 57 249 0.0 0.0 0.00 0.00 0.00 92 1025.5
20180923234138 57 249 0.0 0.0 0.00 0.00 0.00 92 1025.3
20180923233638 57 249 0.0 0.0 0.00 0.00 0.00 92 1025.4
20180923233137 57 249 0.0 0.0 0.00 0.00 0.00 91 1025.4
20180923232622 58 249 0.0 0.0 0.00 0.00 0.00 91 1025.2
20180923232123 58 249 0.0 0.0 0.00 0.00 0.00 91 1025.2
20180923231619 58 249 0.0 0.0 0.00 0.00 0.00 90 1025.3
20180923231055 59 249 0.0 0.0 0.00 0.00 0.00 90 1025.2
20180923230542 59 249 0.0 0.0 0.00 0.00 0.00 90 1025.0
20180923230039 59 249 0.0 0.0 0.00 0.00 0.00 89 1025.0
20180923225538 60 249 0.0 0.0 0.00 0.00 0.00 89 1025.3
20180923225026 60 249 0.0 0.0 0.00 0.00 0.00 88 1025.3
20180923224528 60 249 0.0 0.0 0.00 0.00 0.00 87 1025.3
20180923224021 61 249 0.0 0.0 0.00 0.00 0.00 86 1025.1
20180923223518 61 249 0.0 0.0 0.00 0.00 0.00 86 1025.2
20180923222940 62 249 0.0 0.0 0.00 0.00 0.00 85 1025.3
20180923222421 62 249 0.0 0.0 0.00 0.00 0.00 84 1025.3
20180923221921 62 249 0.0 0.0 0.00 0.00 0.00 83 1025.3
20180923221351 62 249 0.0 0.0 0.00 0.00 0.00 82 1025.2
20180923220843 63 249 0.0 0.0 0.00 0.00 0.00 82 1025.2
20180923220322 63 249 0.0 0.0 0.00 0.00 0.00 80 1025.3
20180923215817 63 249 0.0 0.0 0.00 0.00 0.00 78 1025.3
20180923215307 63 249 0.0 0.0 0.00 0.00 0.00 77 1025.3
20180923214808 64 249 0.0 0.0 0.00 0.00 0.00 76 1025.3
20180923214239 64 249 0.0 0.0 0.00 0.00 0.00 76 1025.3
20180923213732 64 249 0.0 0.0 0.00 0.00 0.00 74 1025.3
20180923213210 64 249 0.0 0.0 0.00 0.00 0.00 73 1025.3
20180923212647 64 249 0.0 0.0 0.00 0.00 0.00 72 1025.2
20180923212140 64 249 0.0 0.0 0.00 0.00 0.00 74 1025.3
20180923211628 64 249 0.0 0.0 0.00 0.00 0.00 75 1025.3
20180923211117 64 249 0.0 0.0 0.00 0.00 0.00 75 1025.2
20180923210609 65 249 0.0 0.0 0.00 0.00 0.00 76 1025.2
20180923210110 65 249 0.0 0.0 0.00 0.00 0.00 75 1025.2
20180923205558 65 249 0.0 1.0 0.00 0.00 0.00 71 1025.2